Location: Emblem
(62.4273°N, 6.4710°E)
Time: 07:37:10
(UTC+02:00)

Transit 2A - Pass Details

Date: 03 March 2024
Orbit: 596 x 956 km, 66.7° (Epoch: 24 April)

Event Time Altitude Azimuth Distance (km) Brightness Sun altitude
Rises 20:10:06 0° 228° (SW) 2,837 9.4 -15.3°
Reaches altitude 10° 20:12:19 10° 227° (SW) 1,942 8.5 -15.6°
Maximum altitude 20:16:37 75° 144° (SE) 642 5.4 -16.0°
Enters shadow 20:20:01 18° 60° (ENE) 1,584 7.3 -16.4°
